[[{"header":{"parameterUnit":"m.s-1","parameterCategory":2,"la1":30.2992,"la2":30.254,"lo1":-89.0895,"lo2":-89.0443,"dy":0.0025,"dx":0.0025,"nx":19,"ny":19,"refTime":"2026-03-27T09:00:00:Z","depth":"0","parameterNumber":2,"parameterNumberName":"U-component_of_CURRENTS"},"data":[0,0,0,0.3751,0.3752,0.3782,0.3782,0.3856,0.3857,0,0,0,0,0,0,0,0,0,0,0,0.3734,0.3734,0.3751,0.3752,0.3782,0.3782,0.3856,0.3857,0,0,0,0,0,0,0,0,0,0,0,0.3734,0.3734,0.3734,0.3752,0.3782,0.3782,0.3856,0.3823,0,0,0,0,0,0,0,0,0,0,0.3788,0.3775,0.3734,0.3734,0.3753,0.3782,0.3782,0.3821,0.3825,0.3855,0,0.3859,0,0.3868,0.3863,0.3864,0,0,0,0.3745,0.3771,0.3778,0.3734,0.3753,0.3782,0.3767,0.3823,0.3827,0.3861,0.3861,0.3863,0.3869,0.3864,0.3865,0.4003,0.4004,0,0,0.3743,0.3743,0.3774,0.378,0.3762,0.3766,0.3768,0.3825,0.3833,0.3861,0.3865,0.387,0.3865,0.3865,0.4002,0.4003,0,0,0,0.3743,0.3742,0.3746,0.3777,0.3785,0.3767,0.3769,0.383,0.3831,0.3866,0.3871,0.3865,0.3866,0.4002,0.4003,0.4085,0,0,0,0.3742,0.3743,0.3745,0.3746,0.3783,0.3805,0.3773,0.3826,0.3833,0.3871,0.3865,0.3867,0.4001,0.4002,0.4081,0.4143,0,0,0,0.3732,0.3742,0.3745,0.3746,0.3763,0.3804,0.3808,0.3827,0.3838,0.3864,0.3868,0.4,0.4002,0.4077,0.4136,0.4266,0,0,0,0.3732,0.3739,0.3745,0.3767,0.3762,0.3806,0.3807,0.3844,0.3868,0.3866,0.4001,0.4003,0.4076,0.4131,0.4261,0.4235,0.4259,0,0,0.3739,0.374,0.3755,0.3761,0.3801,0.3801,0.3876,0.3905,0.3911,0.3981,0.3984,0.4082,0.4135,0.4265,0.4345,0.4366,0,0,0,0.3757,0.376,0.3777,0.3803,0.3837,0.3899,0.3919,0.3959,0.4035,0.3936,0.4098,0.413,0.4209,0.4181,0.4199,0.4029,0.4012,0.4011,0.4011,0.3736,0.3766,0.3787,0.3829,0.388,0.3971,0.4051,0.4113,0.4089,0.4148,0.4207,0.4378,0.4347,0.4361,0.4185,0.4205,0.4206,0.4206,0.4206,0.3721,0.3717,0.3788,0.3815,0.3909,0.3985,0.4167,0.4211,0.4393,0.4309,0.4382,0.4281,0.4384,0.419,0.4212,0.4211,0.421,0.4209,0.4209,0.3665,0.3666,0.3695,0.3759,0.3875,0.401,0.4226,0.4366,0.4471,0.4577,0.4571,0.4568,0.4394,0.4616,0.4617,0.4618,0.4619,0.4619,0.462,0.3579,0.3613,0.3628,0.3716,0.3784,0.3965,0.4284,0.4462,0.4658,0.4694,0.4693,0.4432,0.4505,0.4484,0.4633,0.4631,0.4629,0.4628,0.4627,0.3495,0.3521,0.3554,0.3603,0.378,0.3919,0.4241,0.4571,0.4784,0.4857,0.462,0.4767,0.4756,0.4739,0.4724,0.4928,0.4928,0.4928,0.4928,0.3433,0.345,0.3503,0.3587,0.3731,0.3914,0.4122,0.4381,0.4585,0.46,0.4648,0.4486,0.4482,0.4444,0.4434,0.4408,0.4527,0.4526,0.4526,0.3388,0.343,0.3452,0.3549,0.3701,0.3878,0.3943,0.3965,0.4261,0.4491,0.4425,0.4442,0.418,0.4186,0.4099,0.4098,0.4047,0,0]},{"header":{"parameterUnit":"m.s-1","parameterCategory":2,"la1":30.2992,"la2":30.254,"lo1":-89.0895,"lo2":-89.0443,"dy":0.0025,"dx":0.0025,"nx":19,"ny":19,"refTime":"2026-03-27T09:00:00:Z","depth":"0","parameterNumber":3,"parameterNumberName":"V-component_of_CURRENTS"},"data":[0,0,0,0.0333,0.0332,0.0309,0.0309,0.0249,0.0248,0,0,0,0,0,0,0,0,0,0,0,0.0341,0.0341,0.0333,0.0332,0.0309,0.0309,0.0249,0.0248,0,0,0,0,0,0,0,0,0,0,0,0.0341,0.0341,0.0341,0.0332,0.0309,0.0309,0.0249,0.0272,0,0,0,0,0,0,0,0,0,0,0.0298,0.0307,0.0341,0.0341,0.0332,0.0309,0.0309,0.0273,0.0271,0.0254,0,0.0257,0,0.0254,0.0244,0.0244,0,0,0,0.0324,0.0309,0.0311,0.0341,0.0332,0.0309,0.0317,0.0272,0.0269,0.025,0.0256,0.0254,0.0253,0.0244,0.0244,0.0277,0.0277,0,0,0.0325,0.0326,0.0313,0.0309,0.0334,0.0318,0.0316,0.027,0.0265,0.0256,0.0253,0.0252,0.0244,0.0243,0.0276,0.0277,0,0,0,0.0335,0.0327,0.033,0.0311,0.0311,0.0317,0.0316,0.0267,0.027,0.0252,0.0251,0.0243,0.0243,0.0275,0.0276,0.0404,0,0,0,0.0335,0.0333,0.033,0.0329,0.0312,0.0291,0.0313,0.0274,0.0268,0.0252,0.0243,0.0242,0.0274,0.0276,0.0399,0.0524,0,0,0,0.0341,0.0333,0.0335,0.033,0.0324,0.0292,0.0292,0.0272,0.0268,0.0244,0.0242,0.0273,0.0275,0.0394,0.0513,0.0603,0,0,0,0.0336,0.037,0.0335,0.0378,0.0325,0.0368,0.0293,0.0301,0.029,0.0243,0.0274,0.0276,0.0393,0.0507,0.0596,0.0791,0.0838,0,0,0.0386,0.0375,0.0406,0.0376,0.045,0.037,0.0438,0.0379,0.0312,0.0283,0.0284,0.0401,0.0512,0.0601,0.09,0.0944,0,0,0,0.0428,0.0455,0.0471,0.05,0.0505,0.0528,0.0462,0.0445,0.0421,0.0314,0.0403,0.0471,0.0523,0.0625,0.066,0.0466,0.0285,0.0285,0.0284,0.0497,0.0519,0.0591,0.0619,0.0641,0.0634,0.0657,0.0618,0.0514,0.0527,0.0574,0.074,0.0849,0.0878,0.0674,0.0536,0.0536,0.0537,0.0537,0.0614,0.067,0.0695,0.0772,0.0789,0.0835,0.0842,0.0795,0.0837,0.0713,0.0753,0.0756,0.0925,0.0693,0.0545,0.0544,0.0543,0.0542,0.0542,0.0675,0.0711,0.075,0.0866,0.0964,0.0983,0.1146,0.1092,0.1,0.105,0.1123,0.1122,0.0921,0.104,0.1041,0.1042,0.1043,0.1044,0.1044,0.0724,0.0773,0.0871,0.0982,0.1075,0.1218,0.1336,0.1416,0.1435,0.1343,0.1342,0.0982,0.0894,0.0877,0.1059,0.1056,0.1055,0.1053,0.1052,0.082,0.0831,0.0988,0.1086,0.1327,0.1581,0.1673,0.1893,0.1895,0.194,0.144,0.1481,0.1472,0.1443,0.144,0.1757,0.1757,0.1757,0.1757,0.0871,0.0893,0.1109,0.1298,0.1534,0.1754,0.2183,0.2334,0.2065,0.1848,0.1613,0.1486,0.1466,0.1443,0.1415,0.1404,0.1704,0.1704,0.1703,0.0944,0.1003,0.1167,0.1354,0.1633,0.1979,0.2443,0.2702,0.2172,0.1666,0.1304,0.1306,0.1069,0.1054,0.0968,0.0944,0.0908,0,0]}],[{"header":{"parameterUnit":"m.s-1","parameterCategory":2,"la1":30.2992,"la2":30.254,"lo1":-89.0895,"lo2":-89.0443,"dy":0.0025,"dx":0.0025,"nx":19,"ny":19,"refTime":"2026-03-27T09:00:00:Z","depth":"2","parameterNumber":2,"parameterNumberName":"U-component_of_CURRENTS"},"data":[0,0,0,0.2975,0.2976,0.3049,0.3049,0.3129,0.313,0,0,0,0,0,0,0,0,0,0,0,0.2946,0.2946,0.2975,0.2977,0.3049,0.3049,0.3129,0.313,0,0,0,0,0,0,0,0,0,0,0,0.2945,0.2946,0.2947,0.2977,0.3049,0.3049,0.3129,0.3076,0,0,0,0,0,0,0,0,0,0,0.3006,0.2988,0.2946,0.2947,0.2977,0.3049,0.3049,0.3073,0.3079,0.3094,0,0.311,0,0.3127,0.3136,0.3136,0,0,0,0.2971,0.2983,0.3001,0.2947,0.2978,0.3049,0.3015,0.3077,0.3083,0.3102,0.3111,0.3114,0.3128,0.3136,0.3137,0.3257,0.3257,0,0,0.2967,0.296,0.2996,0.3005,0.3003,0.3012,0.3017,0.3081,0.3091,0.3111,0.3116,0.3129,0.3137,0.3137,0.3256,0.3257,0,0,0,0.2959,0.2958,0.2974,0.3001,0.3019,0.3015,0.302,0.3088,0.3093,0.3117,0.313,0.3137,0.3138,0.3255,0.3256,0.3329,0,0,0,0.2956,0.2954,0.2972,0.2969,0.3018,0.3058,0.3026,0.3088,0.3096,0.313,0.3137,0.3139,0.3254,0.3256,0.3325,0.3332,0,0,0,0.2941,0.2952,0.2962,0.2969,0.3003,0.3057,0.3066,0.309,0.3105,0.3136,0.3139,0.3254,0.3255,0.3322,0.3327,0.3413,0,0,0,0.293,0.2947,0.2962,0.2989,0.3003,0.3059,0.3066,0.3114,0.3143,0.3138,0.3254,0.3256,0.3321,0.3324,0.3409,0.3333,0.3344,0,0,0.2941,0.2948,0.2964,0.2979,0.3027,0.3048,0.3126,0.3166,0.3174,0.323,0.3233,0.3327,0.3327,0.3412,0.3428,0.3436,0,0,0,0.296,0.2967,0.2987,0.3019,0.3065,0.3131,0.3172,0.3212,0.3286,0.32,0.334,0.3337,0.3389,0.3335,0.3343,0.3264,0.3264,0.3263,0.3263,0.2938,0.2968,0.2997,0.3044,0.3097,0.3195,0.3264,0.3326,0.3329,0.3384,0.3408,0.3531,0.3475,0.3479,0.3433,0.3433,0.3433,0.3434,0.3434,0.2924,0.2928,0.2996,0.3034,0.3125,0.3202,0.3356,0.3403,0.353,0.349,0.3539,0.3426,0.3491,0.344,0.3439,0.3438,0.3437,0.3437,0.3436,0.2872,0.2881,0.2917,0.2988,0.3093,0.3221,0.336,0.3486,0.3577,0.3641,0.3606,0.3603,0.3573,0.3687,0.3687,0.3687,0.3688,0.3688,0.3688,0.2794,0.2835,0.2855,0.295,0.3005,0.3139,0.3375,0.3483,0.3628,0.3666,0.3666,0.3616,0.3608,0.3588,0.3695,0.3694,0.3693,0.3692,0.3692,0.272,0.2748,0.2769,0.2811,0.2928,0.2964,0.3229,0.3438,0.3604,0.3647,0.3694,0.3692,0.3662,0.3653,0.3635,0.3748,0.3748,0.3748,0.3748,0.266,0.2679,0.2683,0.2715,0.2776,0.2879,0.2925,0.3105,0.3382,0.3457,0.3469,0.3366,0.3372,0.3319,0.3319,0.3289,0.3313,0.3312,0.3311,0.2615,0.263,0.2597,0.2631,0.2689,0.2719,0.2661,0.2656,0.2924,0.3286,0.3315,0.3734,0.3612,0.361,0.3548,0.354,0.3501,0,0]},{"header":{"parameterUnit":"m.s-1","parameterCategory":2,"la1":30.2992,"la2":30.254,"lo1":-89.0895,"lo2":-89.0443,"dy":0.0025,"dx":0.0025,"nx":19,"ny":19,"refTime":"2026-03-27T09:00:00:Z","depth":"2","parameterNumber":3,"parameterNumberName":"V-component_of_CURRENTS"},"data":[0,0,0,0.0248,0.0247,0.0223,0.0222,0.0167,0.0166,0,0,0,0,0,0,0,0,0,0,0,0.0256,0.0256,0.0248,0.0247,0.0223,0.0222,0.0167,0.0166,0,0,0,0,0,0,0,0,0,0,0,0.0256,0.0256,0.0256,0.0247,0.0223,0.0222,0.0167,0.019,0,0,0,0,0,0,0,0,0,0,0.0216,0.0226,0.0256,0.0256,0.0247,0.0223,0.0222,0.0191,0.0188,0.0173,0,0.0175,0,0.0172,0.0163,0.0162,0,0,0,0.024,0.0228,0.0227,0.0256,0.0247,0.0223,0.0232,0.019,0.0187,0.0169,0.0174,0.0172,0.0171,0.0162,0.0162,0.0177,0.0178,0,0,0.0241,0.0243,0.0229,0.0225,0.0247,0.0233,0.0231,0.0188,0.0183,0.0174,0.0171,0.017,0.0162,0.0161,0.0177,0.0178,0,0,0,0.025,0.0244,0.0245,0.0227,0.0226,0.0232,0.023,0.0185,0.0187,0.017,0.0169,0.0162,0.0161,0.0176,0.0177,0.0289,0,0,0,0.0251,0.025,0.0245,0.0245,0.0227,0.0208,0.0228,0.019,0.0185,0.0169,0.0162,0.016,0.0176,0.0177,0.0285,0.0355,0,0,0,0.0256,0.025,0.0251,0.0245,0.0239,0.0209,0.0207,0.0189,0.0185,0.0162,0.016,0.0175,0.0176,0.0281,0.0347,0.0414,0,0,0,0.0254,0.028,0.0251,0.0285,0.0239,0.0271,0.0208,0.0213,0.0202,0.0161,0.0176,0.0177,0.0279,0.0343,0.0409,0.0493,0.0523,0,0,0.0293,0.0284,0.0309,0.0284,0.0343,0.0273,0.0325,0.0274,0.0215,0.0185,0.0185,0.0286,0.0347,0.0413,0.0572,0.0599,0,0,0,0.0327,0.0349,0.0361,0.0384,0.0386,0.0401,0.0342,0.0322,0.0296,0.0215,0.0282,0.0318,0.0356,0.0395,0.0417,0.0183,0.0183,0.0183,0.0183,0.0383,0.0401,0.0461,0.0482,0.0497,0.0486,0.0494,0.0451,0.0372,0.0378,0.0405,0.0531,0.0574,0.0591,0.0389,0.0389,0.0389,0.039,0.039,0.048,0.0527,0.0547,0.061,0.062,0.0655,0.064,0.0598,0.0598,0.0507,0.0537,0.0508,0.0622,0.0399,0.0397,0.0396,0.0395,0.0394,0.0394,0.0531,0.0561,0.0595,0.0691,0.0772,0.0781,0.0895,0.0827,0.0727,0.075,0.0767,0.0765,0.0611,0.0756,0.0757,0.0757,0.0758,0.0758,0.0759,0.0572,0.0614,0.07,0.0791,0.0876,0.0992,0.1043,0.1063,0.101,0.0916,0.0916,0.0654,0.0642,0.0631,0.0768,0.0766,0.0765,0.0764,0.0764,0.065,0.0663,0.0802,0.0891,0.1107,0.1304,0.1324,0.1378,0.1333,0.1318,0.1003,0.0994,0.0969,0.095,0.0946,0.1157,0.1157,0.1157,0.1157,0.0696,0.0715,0.0911,0.1087,0.13,0.146,0.1683,0.1641,0.1446,0.1278,0.1272,0.1201,0.1183,0.1163,0.1139,0.1135,0.1396,0.1396,0.1396,0.076,0.0813,0.0963,0.1139,0.1397,0.1647,0.1857,0.1801,0.1483,0.1401,0.1261,0.1183,0.1058,0.1038,0.0983,0.0955,0.0938,0,0]}],[{"header":{"parameterUnit":"m.s-1","parameterCategory":2,"la1":30.2992,"la2":30.254,"lo1":-89.0895,"lo2":-89.0443,"dy":0.0025,"dx":0.0025,"nx":19,"ny":19,"refTime":"2026-03-27T09:00:00:Z","depth":"4","parameterNumber":2,"parameterNumberName":"U-component_of_CURRENTS"},"data":[0,0,0,0.1987,0.1991,0.2169,0.2169,0.23,0.2301,0,0,0,0,0,0,0,0,0,0,0,0.1934,0.1935,0.1987,0.1992,0.2169,0.2169,0.23,0.2301,0,0,0,0,0,0,0,0,0,0,0,0.1933,0.1935,0.1937,0.1992,0.2168,0.2169,0.23,0.219,0,0,0,0,0,0,0,0,0,0,0.2029,0.2003,0.1934,0.1937,0.1993,0.2168,0.217,0.2185,0.2196,0.2193,0,0.2236,0,0.2268,0.2308,0.2308,0,0,0,0.199,0.1994,0.2032,0.1937,0.1995,0.2168,0.2088,0.2192,0.2205,0.2207,0.2238,0.2244,0.227,0.2309,0.2309,0.244,0.244,0,0,0.1981,0.197,0.2024,0.2041,0.206,0.2083,0.2094,0.2201,0.2225,0.2239,0.2247,0.2272,0.2309,0.231,0.2439,0.244,0,0,0,0.1953,0.1964,0.2002,0.2035,0.2073,0.2088,0.2101,0.222,0.2232,0.2249,0.2274,0.231,0.2311,0.2438,0.2439,0.2512,0,0,0,0.1947,0.1948,0.1998,0.1994,0.2072,0.2164,0.2118,0.2225,0.2238,0.2273,0.231,0.2312,0.2437,0.2439,0.2508,0.2511,0,0,0,0.1922,0.1945,0.1969,0.1993,0.2069,0.2163,0.2182,0.2229,0.2252,0.2308,0.2312,0.2437,0.2439,0.2505,0.2507,0.2567,0,0,0,0.1898,0.1934,0.197,0.2022,0.2067,0.2159,0.2182,0.2269,0.2321,0.231,0.2438,0.2439,0.2504,0.2504,0.2564,0.2248,0,0,0,0.1916,0.1937,0.1963,0.1998,0.2074,0.2133,0.2235,0.2319,0.2341,0.2393,0.2398,0.251,0.2506,0.2566,0.2346,0,0,0,0,0.1949,0.1971,0.2001,0.2063,0.2133,0.2228,0.2311,0.2361,0.2463,0.2382,0.2522,0.2517,0.2553,0.236,0.2447,0.2447,0.2447,0.2446,0.2446,0.1936,0.1976,0.2028,0.2097,0.2172,0.2305,0.2389,0.2474,0.2496,0.2563,0.2588,0.2692,0.2492,0.2614,0.2615,0.2615,0.2615,0.2615,0.2616,0.193,0.1946,0.2039,0.2107,0.2221,0.2326,0.2484,0.2548,0.2678,0.2663,0.2696,0.2462,0.2623,0.2622,0.2621,0.262,0.2619,0.2619,0.2618,0.1879,0.1893,0.1967,0.2078,0.2213,0.2362,0.2483,0.2624,0.2727,0.2783,0.2597,0.2741,0.2723,0.2826,0.2827,0.2827,0.2827,0.2828,0.2828,0.1786,0.1856,0.1912,0.2049,0.2127,0.2278,0.2499,0.258,0.2728,0.2627,0.2817,0.2763,0.2756,0.2735,0.2833,0.2832,0.2831,0.2831,0.283,0.1698,0.1756,0.1811,0.1882,0.2025,0.2098,0.2353,0.2452,0.252,0.2517,0.2543,0.2556,0.2497,0.2497,0.2464,0.2485,0.2481,0.2478,0,0.1629,0.1663,0.1711,0.1753,0.1798,0.1967,0.1988,0.2135,0.2282,0.2197,0.2522,0.2546,0.2554,0.2481,0.2475,0.2432,0,0,0,0.1575,0.1603,0.1589,0.1642,0.166,0.1771,0.1974,0.1953,0.2262,0.2259,0.2384,0.2409,0.2671,0.2847,0.2787,0.2779,0.2742,0,0]},{"header":{"parameterUnit":"m.s-1","parameterCategory":2,"la1":30.2992,"la2":30.254,"lo1":-89.0895,"lo2":-89.0443,"dy":0.0025,"dx":0.0025,"nx":19,"ny":19,"refTime":"2026-03-27T09:00:00:Z","depth":"4","parameterNumber":3,"parameterNumberName":"V-component_of_CURRENTS"},"data":[0,0,0,0.0196,0.0196,0.0185,0.0185,0.0147,0.0147,0,0,0,0,0,0,0,0,0,0,0,0.0201,0.0201,0.0196,0.0196,0.0185,0.0185,0.0147,0.0147,0,0,0,0,0,0,0,0,0,0,0,0.0201,0.0201,0.0201,0.0196,0.0185,0.0185,0.0147,0.016,0,0,0,0,0,0,0,0,0,0,0.0173,0.0181,0.0201,0.0201,0.0196,0.0185,0.0185,0.0161,0.016,0.0147,0,0.015,0,0.0149,0.0144,0.0144,0,0,0,0.0191,0.0182,0.0182,0.0201,0.0196,0.0185,0.0189,0.016,0.0159,0.0144,0.015,0.0148,0.0148,0.0144,0.0144,0.0149,0.0149,0,0,0.0192,0.0194,0.0184,0.0181,0.0199,0.0189,0.0189,0.0159,0.0158,0.0149,0.0147,0.0147,0.0144,0.0143,0.0149,0.0149,0,0,0,0.0197,0.0194,0.0195,0.0183,0.0183,0.0189,0.0188,0.0159,0.016,0.0147,0.0147,0.0143,0.0143,0.0148,0.0149,0.0239,0,0,0,0.0197,0.0198,0.0196,0.0196,0.0184,0.0174,0.0188,0.0162,0.0159,0.0147,0.0143,0.0143,0.0148,0.0148,0.0236,0.0293,0,0,0,0.02,0.0198,0.0199,0.0196,0.0194,0.0174,0.0174,0.0162,0.0159,0.0144,0.0142,0.0147,0.0148,0.0233,0.0287,0.032,0,0,0,0.0199,0.0218,0.0199,0.0225,0.0194,0.0219,0.0174,0.0181,0.0174,0.0143,0.0148,0.0149,0.0232,0.0283,0.0317,0.0337,0,0,0,0.0226,0.0221,0.024,0.0224,0.0268,0.0219,0.0258,0.0225,0.018,0.0154,0.0154,0.0237,0.0286,0.0319,0.0385,0,0,0,0,0.0252,0.0268,0.0278,0.0298,0.03,0.0315,0.0274,0.0257,0.0239,0.018,0.0228,0.0257,0.0275,0.0275,0.0153,0.0153,0.0153,0.0152,0.0152,0.0291,0.0306,0.0351,0.0369,0.0383,0.0377,0.0382,0.0348,0.0293,0.0297,0.0324,0.0404,0.0408,0.0305,0.0306,0.0306,0.0306,0.0307,0.0307,0.0358,0.0391,0.0414,0.0463,0.0477,0.0507,0.0491,0.0461,0.0455,0.0396,0.0408,0.0363,0.0316,0.0314,0.0313,0.0312,0.0311,0.031,0.031,0.039,0.041,0.0444,0.0524,0.0594,0.0608,0.0683,0.0637,0.0556,0.0569,0.0547,0.0466,0.0465,0.057,0.057,0.057,0.0571,0.0571,0.0571,0.0409,0.0446,0.0518,0.0598,0.0673,0.0768,0.0797,0.0793,0.0715,0.0665,0.0601,0.0493,0.0484,0.0479,0.0578,0.0577,0.0576,0.0575,0.0575,0.0451,0.0472,0.0583,0.0662,0.0839,0.0912,0.0941,0.0906,0.0891,0.0838,0.0698,0.069,0.0659,0.0646,0.0646,0.0797,0.0798,0.0799,0,0.0476,0.0494,0.0654,0.0798,0.0947,0.1008,0.1038,0.1017,0.0895,0.0877,0.0872,0.0716,0.0708,0.0672,0.0662,0.0663,0,0,0,0.0514,0.056,0.0677,0.0823,0.0999,0.1045,0.1052,0.1021,0.0916,0.0901,0.0815,0.0811,0.0715,0.0597,0.0529,0.0519,0.0508,0,0]}]]